Tracking 29591 objects as of 19-Sep-2024
HD Live streaming from Space Station
objects crossing your sky now

ONEWEB-0581

Track ONEWEB-0581 now!
10-day predictions
ONEWEB-0581 is classified as:


NORAD ID: 56069
Int'l Code: 2023-043Z
Perigee: 1,203.9 km
Apogee: 1,205.9 km
Inclination: 87.9 °
Period: 109.4 minutes
Semi major axis: 7575 km
RCS: Unknown
Launch date: March 26, 2023
Source: United Kingdom (UK)
Launch site: SRIHARIKOTA (SRI)
Your satellite tracking list
Your tracking list is empty




NASA's NSSDC Master Catalog

Two Line Element Set (TLE):
1 56069U 23043Z   24262.75173287 -.00000026  00000-0 -10159-3 0  9993
2 56069  87.9170 355.5446 0001319 106.2315 253.8961 13.16593358 76128
Source of the keplerian elements: AFSPC